Time,TemperatureF,DewpointF,PressureIn,WindDirection,WindDirectionDegrees,WindSpeedMPH,WindSpeedGustMPH,Humidity,HourlyPrecipIn,Conditions,Clouds,dailyrainin,SoftwareType,DateUTC
2013-08-09 00:11:00,70.6,70.0,29.91,SE,126,0.0,0.0,97,0.71,,,0.05,weatherlink.com 1.10,2013-08-09 04:11:00,
2013-08-09 00:26:00,70.5,70.0,29.93,WNW,287,0.0,0.0,97,0.74,,,0.09,weatherlink.com 1.10,2013-08-09 04:26:00,
2013-08-09 00:41:00,70.7,70.0,29.93,SW,235,0.0,0.0,98,0.42,,,0.11,weatherlink.com 1.10,2013-08-09 04:41:00,
2013-08-09 00:56:00,70.1,70.0,29.93,SW,219,0.0,0.0,98,0.15,,,0.12,weatherlink.com 1.10,2013-08-09 04:56:00,
2013-08-09 01:11:00,69.9,69.0,29.92,SW,219,0.0,0.0,98,0.08,,,0.13,weatherlink.com 1.10,2013-08-09 05:11:00,
2013-08-09 01:26:00,69.8,69.0,29.92,SW,219,0.0,0.0,98,0.04,,,0.13,weatherlink.com 1.10,2013-08-09 05:26:00,
2013-08-09 01:41:00,69.9,69.0,29.91,WSW,255,0.0,0.0,98,0.02,,,0.13,weatherlink.com 1.10,2013-08-09 05:41:00,
2013-08-09 01:56:00,70.0,70.0,29.90,WNW,301,0.0,0.0,99,0.01,,,0.13,weatherlink.com 1.10,2013-08-09 05:56:00,
2013-08-09 02:11:00,70.0,70.0,29.90,WNW,301,0.0,0.0,99,0.00,,,0.13,weatherlink.com 1.10,2013-08-09 06:11:00,
2013-08-09 02:26:00,69.9,70.0,29.90,WSW,250,0.0,0.0,99,0.01,,,0.14,weatherlink.com 1.10,2013-08-09 06:26:00,
2013-08-09 02:41:00,69.9,70.0,29.90,WSW,250,0.0,0.0,99,0.01,,,0.14,weatherlink.com 1.10,2013-08-09 06:41:00,
2013-08-09 02:56:00,69.9,70.0,29.90,WSW,252,0.0,0.0,99,0.01,,,0.14,weatherlink.com 1.10,2013-08-09 06:56:00,
2013-08-09 03:11:00,69.9,70.0,29.89,WSW,252,0.0,0.0,99,0.01,,,0.14,weatherlink.com 1.10,2013-08-09 07:11:00,
2013-08-09 03:26:00,70.0,70.0,29.90,WSW,250,0.0,0.0,99,0.00,,,0.14,weatherlink.com 1.10,2013-08-09 07:26:00,
2013-08-09 03:41:00,70.2,70.0,29.90,WSW,255,0.0,0.0,99,0.00,,,0.14,weatherlink.com 1.10,2013-08-09 07:41:00,
2013-08-09 03:56:00,70.3,70.0,29.90,WSW,255,0.0,0.0,99,0.00,,,0.14,weatherlink.com 1.10,2013-08-09 07:56:00,
2013-08-09 04:11:00,70.3,70.0,29.90,WSW,255,0.0,0.0,99,0.00,,,0.14,weatherlink.com 1.10,2013-08-09 08:11:00,
2013-08-09 04:26:00,70.3,70.0,29.91,WSW,255,0.0,0.0,99,0.00,,,0.14,weatherlink.com 1.10,2013-08-09 08:26:00,
2013-08-09 04:41:00,70.2,70.0,29.91,WSW,255,0.0,0.0,99,0.00,,,0.14,weatherlink.com 1.10,2013-08-09 08:41:00,
2013-08-09 04:56:00,70.3,70.0,29.90,WSW,255,0.0,0.0,99,0.00,,,0.14,weatherlink.com 1.10,2013-08-09 08:56:00,
2013-08-09 05:11:00,70.4,70.0,29.91,WSW,252,0.0,0.0,99,0.00,,,0.14,weatherlink.com 1.10,2013-08-09 09:11:00,
2013-08-09 05:26:00,70.5,70.0,29.91,WSW,252,0.0,0.0,99,0.00,,,0.14,weatherlink.com 1.10,2013-08-09 09:26:00,
2013-08-09 05:41:00,70.4,70.0,29.91,WSW,253,0.0,0.0,99,0.00,,,0.14,weatherlink.com 1.10,2013-08-09 09:41:00,
2013-08-09 05:56:00,70.5,70.0,29.91,WSW,252,0.0,0.0,99,0.00,,,0.14,weatherlink.com 1.10,2013-08-09 09:56:00,
2013-08-09 06:11:00,70.4,70.0,29.91,WSW,252,0.0,0.0,99,0.00,,,0.14,weatherlink.com 1.10,2013-08-09 10:11:00,
2013-08-09 06:26:00,70.6,71.0,29.91,WSW,252,0.0,0.0,100,0.00,,,0.14,weatherlink.com 1.10,2013-08-09 10:26:00,
2013-08-09 06:41:00,70.8,71.0,29.91,WSW,256,0.0,0.0,100,0.00,,,0.14,weatherlink.com 1.10,2013-08-09 10:41:00,
2013-08-09 06:56:00,71.0,71.0,29.93,WSW,256,0.0,0.0,100,0.00,,,0.14,weatherlink.com 1.10,2013-08-09 10:56:00,
2013-08-09 07:11:00,71.1,71.0,29.93,WNW,298,0.0,0.0,100,0.00,,,0.14,weatherlink.com 1.10,2013-08-09 11:11:00,
2013-08-09 07:26:00,71.2,71.0,29.93,WSW,239,0.0,2.0,100,0.00,,,0.14,weatherlink.com 1.10,2013-08-09 11:26:00,
2013-08-09 07:41:00,71.2,71.0,29.94,WSW,252,0.0,2.0,100,0.00,,,0.14,weatherlink.com 1.10,2013-08-09 11:41:00,
2013-08-09 07:56:00,71.4,71.0,29.94,WSW,252,0.0,0.0,100,0.00,,,0.14,weatherlink.com 1.10,2013-08-09 11:56:00,
2013-08-09 08:11:00,71.6,72.0,29.95,WSW,245,0.0,0.0,100,0.00,,,0.14,weatherlink.com 1.10,2013-08-09 12:11:00,
2013-08-09 08:26:00,71.8,72.0,29.95,West,269,0.0,0.0,100,0.00,,,0.14,weatherlink.com 1.10,2013-08-09 12:26:00,
2013-08-09 08:41:00,72.3,72.0,29.95,West,269,0.0,0.0,100,0.00,,,0.14,weatherlink.com 1.10,2013-08-09 12:41:00,
2013-08-09 08:56:00,72.8,73.0,29.95,SW,222,0.0,0.0,100,0.00,,,0.14,weatherlink.com 1.10,2013-08-09 12:56:00,
2013-08-09 09:11:00,73.2,73.0,29.95,SW,218,0.0,0.0,100,0.00,,,0.14,weatherlink.com 1.10,2013-08-09 13:11:00,
2013-08-09 09:26:00,73.2,73.0,29.96,SSW,212,0.0,2.0,99,0.00,,,0.14,weatherlink.com 1.10,2013-08-09 13:26:00,
2013-08-09 09:41:00,73.1,73.0,29.96,WSW,238,0.0,0.0,99,0.00,,,0.14,weatherlink.com 1.10,2013-08-09 13:41:00,
2013-08-09 09:56:00,73.2,73.0,29.95,WSW,248,0.0,1.0,99,0.00,,,0.14,weatherlink.com 1.10,2013-08-09 13:56:00,
2013-08-09 10:11:00,73.8,74.0,29.96,WSW,243,0.0,0.0,99,0.00,,,0.14,weatherlink.com 1.10,2013-08-09 14:11:00,
2013-08-09 10:26:00,73.6,73.0,29.96,SW,231,0.0,3.0,99,0.00,,,0.14,weatherlink.com 1.10,2013-08-09 14:26:00,
2013-08-09 10:41:00,74.0,74.0,29.95,SW,231,0.0,0.0,99,0.00,,,0.14,weatherlink.com 1.10,2013-08-09 14:41:00,
2013-08-09 10:57:00,74.5,74.0,29.95,SW,231,0.0,1.0,99,0.00,,,0.14,weatherlink.com 1.10,2013-08-09 14:57:00,
2013-08-09 11:12:00,74.6,74.0,29.96,WNW,301,0.0,2.0,98,0.00,,,0.14,weatherlink.com 1.10,2013-08-09 15:12:00,
2013-08-09 11:27:00,75.0,74.0,29.96,WSW,242,0.0,3.0,98,0.00,,,0.14,weatherlink.com 1.10,2013-08-09 15:27:00,
2013-08-09 11:42:00,75.4,75.0,29.96,West,260,0.0,2.0,97,0.00,,,0.14,weatherlink.com 1.10,2013-08-09 15:42:00,
2013-08-09 11:57:00,76.0,75.0,29.96,NNW,337,2.0,6.0,96,0.00,,,0.14,weatherlink.com 1.10,2013-08-09 15:57:00,
2013-08-09 12:12:00,77.9,76.0,29.96,WSW,245,2.0,3.0,95,0.00,,,0.14,weatherlink.com 1.10,2013-08-09 16:12:00,
2013-08-09 12:27:00,78.0,75.0,29.97,NW,323,1.0,4.0,91,0.00,,,0.14,weatherlink.com 1.10,2013-08-09 16:27:00,
2013-08-09 12:42:00,78.9,76.0,29.97,South,191,1.0,5.0,90,0.00,,,0.14,weatherlink.com 1.10,2013-08-09 16:42:00,
2013-08-09 12:57:00,80.1,76.0,29.96,NW,321,2.0,3.0,87,0.00,,,0.14,weatherlink.com 1.10,2013-08-09 16:57:00,
2013-08-09 13:12:00,80.7,76.0,29.96,ESE,121,1.0,6.0,85,0.00,,,0.14,weatherlink.com 1.10,2013-08-09 17:12:00,
2013-08-09 13:27:00,81.1,75.0,29.96,WSW,242,0.0,5.0,82,0.00,,,0.14,weatherlink.com 1.10,2013-08-09 17:27:00,
2013-08-09 13:42:00,80.8,75.0,29.96,West,261,5.0,6.0,82,0.00,,,0.14,weatherlink.com 1.10,2013-08-09 17:42:00,
2013-08-09 13:57:00,80.1,75.0,29.97,NW,317,6.0,6.0,83,0.00,,,0.14,weatherlink.com 1.10,2013-08-09 17:57:00,
2013-08-09 14:12:00,78.9,74.0,29.96,NW,314,3.0,9.0,86,0.00,,,0.14,weatherlink.com 1.10,2013-08-09 18:12:00,
2013-08-09 14:27:00,79.0,75.0,29.96,NNW,330,2.0,5.0,87,0.00,,,0.14,weatherlink.com 1.10,2013-08-09 18:27:00,
2013-08-09 14:42:00,79.1,74.0,29.96,NNE,13,3.0,10.0,84,0.00,,,0.14,weatherlink.com 1.10,2013-08-09 18:42:00,
2013-08-09 14:57:00,79.5,74.0,29.96,NNE,25,2.0,10.0,84,0.00,,,0.14,weatherlink.com 1.10,2013-08-09 18:57:00,
2013-08-09 15:12:00,80.3,74.0,29.96,NW,315,2.0,8.0,82,0.00,,,0.14,weatherlink.com 1.10,2013-08-09 19:12:00,
2013-08-09 15:27:00,81.7,74.0,29.96,NW,322,4.0,6.0,78,0.00,,,0.14,weatherlink.com 1.10,2013-08-09 19:27:00,
2013-08-09 15:42:00,82.0,74.0,29.95,NW,326,6.0,9.0,77,0.00,,,0.14,weatherlink.com 1.10,2013-08-09 19:42:00,
2013-08-09 15:57:00,81.7,74.0,29.96,NNW,337,1.0,7.0,78,0.00,,,0.14,weatherlink.com 1.10,2013-08-09 19:57:00,
2013-08-09 16:12:00,81.9,74.0,29.96,NNW,334,3.0,9.0,77,0.00,,,0.14,weatherlink.com 1.10,2013-08-09 20:12:00,
2013-08-09 16:27:00,83.1,75.0,29.96,West,259,3.0,6.0,77,0.00,,,0.14,weatherlink.com 1.10,2013-08-09 20:27:00,
2013-08-09 16:42:00,83.0,75.0,29.96,WNW,288,2.0,7.0,76,0.00,,,0.14,weatherlink.com 1.10,2013-08-09 20:42:00,
2013-08-09 16:57:00,83.2,74.0,29.96,NNW,345,3.0,6.0,73,0.00,,,0.14,weatherlink.com 1.10,2013-08-09 20:57:00,
2013-08-09 17:12:00,83.0,73.0,29.96,North,8,2.0,7.0,72,0.00,,,0.14,weatherlink.com 1.10,2013-08-09 21:12:00,
2013-08-09 17:27:00,82.7,73.0,29.95,NNW,344,2.0,7.0,72,0.00,,,0.14,weatherlink.com 1.10,2013-08-09 21:27:00,
2013-08-09 17:42:00,81.4,73.0,29.95,WNW,282,2.0,6.0,75,0.00,,,0.14,weatherlink.com 1.10,2013-08-09 21:42:00,
2013-08-09 17:57:00,82.0,73.0,29.95,NE,39,3.0,6.0,74,0.00,,,0.14,weatherlink.com 1.10,2013-08-09 21:57:00,
2013-08-09 18:12:00,83.0,72.0,29.95,NW,314,2.0,7.0,70,0.00,,,0.14,weatherlink.com 1.10,2013-08-09 22:12:00,
2013-08-09 18:27:00,82.3,73.0,29.95,NNW,343,0.0,4.0,73,0.00,,,0.14,weatherlink.com 1.10,2013-08-09 22:27:00,
2013-08-09 18:42:00,83.3,73.0,29.95,ESE,108,1.0,4.0,71,0.00,,,0.14,weatherlink.com 1.10,2013-08-09 22:42:00,
2013-08-09 18:57:00,83.0,72.0,29.95,NW,315,0.0,3.0,70,0.00,,,0.14,weatherlink.com 1.10,2013-08-09 22:57:00,
2013-08-09 19:12:00,82.1,73.0,29.96,NNW,332,0.0,3.0,73,0.00,,,0.14,weatherlink.com 1.10,2013-08-09 23:12:00,
2013-08-09 19:27:00,81.0,72.0,29.96,NNW,347,1.0,3.0,75,0.00,,,0.14,weatherlink.com 1.10,2013-08-09 23:27:00,
2013-08-09 19:42:00,79.9,73.0,29.96,WNW,288,0.0,1.0,79,0.00,,,0.14,weatherlink.com 1.10,2013-08-09 23:42:00,
2013-08-09 19:57:00,78.9,73.0,29.96,WNW,288,0.0,0.0,81,0.00,,,0.14,weatherlink.com 1.10,2013-08-09 23:57:00,
2013-08-09 20:12:00,77.1,72.0,29.96,WNW,288,0.0,0.0,84,0.00,,,0.14,weatherlink.com 1.10,2013-08-10 00:12:00,
2013-08-09 20:27:00,76.6,72.0,29.96,NW,315,0.0,2.0,86,0.00,,,0.14,weatherlink.com 1.10,2013-08-10 00:27:00,
2013-08-09 20:42:00,76.0,72.0,29.97,NW,315,1.0,1.0,86,0.00,,,0.14,weatherlink.com 1.10,2013-08-10 00:42:00,
2013-08-09 20:57:00,75.1,71.0,29.98,NW,318,0.0,0.0,88,0.00,,,0.14,weatherlink.com 1.10,2013-08-10 00:57:00,
2013-08-09 21:12:00,74.6,71.0,29.99,NW,318,0.0,0.0,88,0.00,,,0.14,weatherlink.com 1.10,2013-08-10 01:12:00,
2013-08-09 21:27:00,74.0,71.0,30.00,NW,318,0.0,0.0,90,0.00,,,0.14,weatherlink.com 1.10,2013-08-10 01:27:00,
2013-08-09 21:42:00,73.6,71.0,30.00,NW,318,0.0,0.0,91,0.00,,,0.14,weatherlink.com 1.10,2013-08-10 01:42:00,
2013-08-09 21:57:00,73.8,71.0,30.00,NW,317,0.0,0.0,91,0.00,,,0.14,weatherlink.com 1.10,2013-08-10 01:57:00,
2013-08-09 22:13:00,73.8,71.0,30.01,NW,317,0.0,0.0,91,0.00,,,0.14,weatherlink.com 1.10,2013-08-10 02:13:00,
2013-08-09 22:28:00,73.3,71.0,30.01,NW,318,0.0,0.0,91,0.00,,,0.14,weatherlink.com 1.10,2013-08-10 02:28:00,
2013-08-09 22:43:00,73.1,71.0,30.01,NW,318,0.0,0.0,92,0.00,,,0.14,weatherlink.com 1.10,2013-08-10 02:43:00,
2013-08-09 22:58:00,73.5,71.0,30.01,NW,318,0.0,0.0,91,0.00,,,0.14,weatherlink.com 1.10,2013-08-10 02:58:00,
2013-08-09 23:13:00,73.7,71.0,30.01,NW,317,0.0,0.0,90,0.00,,,0.14,weatherlink.com 1.10,2013-08-10 03:13:00,
2013-08-09 23:28:00,73.7,71.0,30.01,NW,318,0.0,0.0,91,0.00,,,0.14,weatherlink.com 1.10,2013-08-10 03:28:00,
2013-08-09 23:43:00,73.9,71.0,30.02,NW,318,0.0,0.0,91,0.00,,,0.14,weatherlink.com 1.10,2013-08-10 03:43:00,
2013-08-09 23:58:00,74.0,72.0,30.02,NW,317,0.0,0.0,92,0.00,,,0.14,weatherlink.com 1.10,2013-08-10 03:58:00,